Meteo orario Abadszalok

Oggi, 4 Marzo, Giovedi

Tempo Temperatura Precipitazioni Vento Pressione Umidità
00:00 +7°C° 0 mm 3 m/s 761 mm Hg 69%
01:00 +5°C° 0 mm 3 m/s 760 mm Hg 70%
02:00 +5°C° 0 mm 3 m/s 760 mm Hg 71%
03:00 +5°C° 0 mm 3 m/s 759 mm Hg 73%
04:00 +4°C° 0 mm 3 m/s 759 mm Hg 74%
05:00 +4°C° 0 mm 3 m/s 758 mm Hg 75%
06:00 +4°C° 0 mm 3 m/s 758 mm Hg 75%
07:00 +4°C° 0 mm 3 m/s 758 mm Hg 76%
08:00 +7°C° 0 mm 3 m/s 758 mm Hg 71%
09:00 +7°C° 0 mm 4 m/s 757 mm Hg 66%
10:00 +10°C° 0 mm 4 m/s 757 mm Hg 61%
11:00 +11°C° 0 mm 4 m/s 756 mm Hg 58%
12:00 +12°C° 0 mm 4 m/s 756 mm Hg 56%
13:00 +13°C° 0 mm 5 m/s 755 mm Hg 53%
14:00 +13°C° 0 mm 4 m/s 755 mm Hg 54%
15:00 +13°C° 0 mm 4 m/s 755 mm Hg 54%
16:00 +13°C° 0 mm 4 m/s 754 mm Hg 55%
17:00 +12°C° 0 mm 3 m/s 754 mm Hg 58%
18:00 +10°C° 0 mm 3 m/s 754 mm Hg 62%
19:00 +9°C° 0 mm 3 m/s 753 mm Hg 66%
20:00 +9°C° 0 mm 3 m/s 753 mm Hg 67%
21:00 +9°C° 0 mm 3 m/s 753 mm Hg 67%
22:00 +8°C° 0 mm 3 m/s 753 mm Hg 68%
23:00 +8°C° 0 mm 3 m/s 753 mm Hg 69%

Domani, 5 Marzo, Venerdi

Tempo Temperatura Precipitazioni Vento Pressione Umidità
00:00 +8°C° 0 mm 3 m/s 752 mm Hg 71%
01:00 +7°C° 0 mm 3 m/s 752 mm Hg 72%
02:00 +7°C° 0 mm 3 m/s 752 mm Hg 73%
03:00 +7°C° 0 mm 3 m/s 751 mm Hg 75%
04:00 +5°C° 0 mm 3 m/s 751 mm Hg 76%
05:00 +5°C° 0 mm 3 m/s 751 mm Hg 76%
06:00 +7°C° 0 mm 3 m/s 751 mm Hg 76%
07:00 +7°C° 0 mm 3 m/s 751 mm Hg 76%
08:00 +7°C° 0 mm 4 m/s 752 mm Hg 74%
09:00 +8°C° 0 mm 4 m/s 752 mm Hg 72%
10:00 +10°C° 0 mm 4 m/s 753 mm Hg 70%
11:00 +8°C° 0.3 mm 5 m/s 753 mm Hg 72%
12:00 +7°C° 0.3 mm 5 m/s 753 mm Hg 74%
13:00 +7°C° 0.3 mm 6 m/s 753 mm Hg 77%
14:00 +4°C° 0.2 mm 6 m/s 754 mm Hg 80%
15:00 +3°C° 0.2 mm 6 m/s 754 mm Hg 83%
16:00 +2°C° 0.2 mm 6 m/s 755 mm Hg 86%
17:00 +2°C° 0 mm 5 m/s 755 mm Hg 82%
18:00 +2°C° 0 mm 5 m/s 756 mm Hg 77%
19:00 +3°C° 0 mm 4 m/s 757 mm Hg 73%
20:00 +1°C° 0 mm 5 m/s 758 mm Hg 69%
21:00 +1°C° 0 mm 6 m/s 759 mm Hg 66%
22:00 -1°C° 0 mm 6 m/s 759 mm Hg 63%
23:00 -1°C° 0 mm 6 m/s 760 mm Hg 62%

Dopodomani, 6 Marzo, Sabato

Tempo Temperatura Precipitazioni Vento Pressione Umidità
00:00 -1°C° 0 mm 5 m/s 761 mm Hg 61%
01:00 -1°C° 0 mm 5 m/s 761 mm Hg 59%
02:00 -1°C° 0 mm 4 m/s 762 mm Hg 61%
03:00 -1°C° 0 mm 3 m/s 762 mm Hg 63%
04:00 -1°C° 0 mm 3 m/s 762 mm Hg 65%
05:00 -1°C° 0 mm 3 m/s 763 mm Hg 65%
06:00 -1°C° 0 mm 3 m/s 763 mm Hg 65%
07:00 -1°C° 0 mm 2 m/s 764 mm Hg 64%
08:00 +1°C° 0 mm 3 m/s 764 mm Hg 58%
09:00 +2°C° 0 mm 3 m/s 765 mm Hg 52%
10:00 +3°C° 0 mm 3 m/s 765 mm Hg 45%
11:00 +4°C° 0 mm 3 m/s 765 mm Hg 43%
12:00 +4°C° 0 mm 3 m/s 765 mm Hg 40%
13:00 +5°C° 0 mm 3 m/s 765 mm Hg 38%
14:00 +5°C° 0 mm 2 m/s 765 mm Hg 38%
15:00 +5°C° 0 mm 2 m/s 765 mm Hg 39%
16:00 +6°C° 0 mm 1 m/s 764 mm Hg 39%
17:00 +5°C° 0 mm 1 m/s 765 mm Hg 43%
18:00 +4°C° 0 mm 1 m/s 765 mm Hg 48%
19:00 +4°C° 0 mm 1 m/s 765 mm Hg 52%
20:00 +3°C° 0 mm 1 m/s 765 mm Hg 55%
21:00 +3°C° 0 mm 1 m/s 765 mm Hg 57%
22:00 +1°C° 0 mm 2 m/s 765 mm Hg 59%
23:00 +1°C° 0 mm 2 m/s 765 mm Hg 61%

7 Marzo, Domenica

Tempo Temperatura Precipitazioni Vento Pressione Umidità
00:00 +1°C° 0 mm 2 m/s 765 mm Hg 62%
01:00 -1°C° 0 mm 2 m/s 765 mm Hg 64%
02:00 -1°C° 0 mm 2 m/s 765 mm Hg 64%
03:00 -1°C° 0 mm 2 m/s 764 mm Hg 64%
04:00 -1°C° 0 mm 2 m/s 764 mm Hg 65%
05:00 -1°C° 0 mm 2 m/s 764 mm Hg 64%
06:00 -1°C° 0 mm 2 m/s 764 mm Hg 63%
07:00 -1°C° 0 mm 3 m/s 764 mm Hg 62%
08:00 +1°C° 0 mm 3 m/s 763 mm Hg 56%
09:00 +2°C° 0 mm 3 m/s 763 mm Hg 51%
10:00 +4°C° 0 mm 4 m/s 763 mm Hg 45%
11:00 +4°C° 0 mm 4 m/s 762 mm Hg 44%
12:00 +5°C° 0 mm 4 m/s 762 mm Hg 43%
13:00 +6°C° 0 mm 4 m/s 761 mm Hg 42%
14:00 +6°C° 0 mm 4 m/s 760 mm Hg 43%
15:00 +7°C° 0 mm 3 m/s 759 mm Hg 43%
16:00 +7°C° 0 mm 3 m/s 759 mm Hg 43%
17:00 +5°C° 0 mm 3 m/s 759 mm Hg 48%
18:00 +3°C° 0 mm 3 m/s 758 mm Hg 53%
19:00 +3°C° 0 mm 2 m/s 758 mm Hg 58%
20:00 +3°C° 0 mm 2 m/s 758 mm Hg 60%
21:00 +2°C° 0 mm 2 m/s 758 mm Hg 61%
22:00 +2°C° 0 mm 2 m/s 758 mm Hg 63%
23:00 +1°C° 0 mm 2 m/s 757 mm Hg 64%

8 Marzo, Lunedi

Tempo Temperatura Precipitazioni Vento Pressione Umidità
00:00 +1°C° 0 mm 2 m/s 757 mm Hg 64%
01:00 +1°C° 0 mm 2 m/s 757 mm Hg 65%
02:00 +1°C° 0 mm 2 m/s 756 mm Hg 65%
03:00 -1°C° 0 mm 2 m/s 756 mm Hg 65%
04:00 -1°C° 0 mm 2 m/s 756 mm Hg 65%
05:00 -1°C° 0 mm 2 m/s 756 mm Hg 65%
06:00 +1°C° 0 mm 2 m/s 756 mm Hg 65%
07:00 +1°C° 0 mm 2 m/s 756 mm Hg 66%
08:00 +2°C° 0 mm 2 m/s 756 mm Hg 61%
09:00 +4°C° 0 mm 2 m/s 757 mm Hg 56%
10:00 +5°C° 0 mm 2 m/s 757 mm Hg 51%
11:00 +6°C° 0 mm 2 m/s 757 mm Hg 49%
12:00 +7°C° 0 mm 2 m/s 756 mm Hg 47%
13:00 +7°C° 0 mm 2 m/s 756 mm Hg 45%
14:00 +7°C° 0 mm 3 m/s 756 mm Hg 46%
15:00 +7°C° 0 mm 3 m/s 756 mm Hg 47%
16:00 +7°C° 0 mm 3 m/s 756 mm Hg 48%
17:00 +5°C° 0 mm 3 m/s 756 mm Hg 54%
18:00 +5°C° 0 mm 2 m/s 756 mm Hg 60%
19:00 +4°C° 0 mm 2 m/s 757 mm Hg 65%
20:00 +2°C° 0 mm 3 m/s 757 mm Hg 68%
21:00 +2°C° 0 mm 3 m/s 758 mm Hg 70%
22:00 +2°C° 0 mm 3 m/s 758 mm Hg 72%
23:00 0°C° 0 mm 4 m/s 758 mm Hg 71%

9 Marzo, Martedi

Tempo Temperatura Precipitazioni Vento Pressione Umidità
00:00 0°C° 0 mm 5 m/s 759 mm Hg 70%
01:00 -2°C° 0 mm 6 m/s 759 mm Hg 69%
02:00 -1°C° 0 mm 5 m/s 759 mm Hg 67%
03:00 -2°C° 0 mm 5 m/s 759 mm Hg 65%
04:00 -2°C° 0 mm 5 m/s 759 mm Hg 63%
05:00 -2°C° 0 mm 5 m/s 760 mm Hg 62%
06:00 -2°C° 0 mm 5 m/s 760 mm Hg 60%
07:00 -2°C° 0 mm 5 m/s 761 mm Hg 59%
08:00 -1°C° 0 mm 5 m/s 761 mm Hg 56%
09:00 0°C° 0 mm 4 m/s 761 mm Hg 52%
10:00 +1°C° 0 mm 4 m/s 761 mm Hg 49%
11:00 +1°C° 0 mm 4 m/s 761 mm Hg 46%
12:00 +3°C° 0 mm 4 m/s 761 mm Hg 43%
13:00 +4°C° 0 mm 3 m/s 761 mm Hg 40%
14:00 +4°C° 0 mm 3 m/s 761 mm Hg 40%
15:00 +5°C° 0 mm 2 m/s 761 mm Hg 40%
16:00 +5°C° 0 mm 2 m/s 760 mm Hg 39%
17:00 +4°C° 0 mm 2 m/s 761 mm Hg 44%
18:00 +4°C° 0 mm 1 m/s 761 mm Hg 50%
19:00 +3°C° 0 mm 1 m/s 761 mm Hg 55%
20:00 +2°C° 0 mm 1 m/s 761 mm Hg 56%
21:00 +2°C° 0 mm 1 m/s 762 mm Hg 57%
22:00 +1°C° 0 mm 1 m/s 762 mm Hg 58%
23:00 +1°C° 0 mm 1 m/s 762 mm Hg 57%
Mostrare altro

Abbiamo bisogno del tuo consenso

Meteoprog e i nostri fornitori di servizi possono memorizzare e accedere a dati personali come cookie, identificatori di dispositivi o altre tecnologie simili sul tuo dispositivo e possono elaborare tali dati per personalizzare i contenuti e gli annunci, nonché fornire funzionalità dei social media e analizzarne il traffico.

  • Archiviare e/o accedere alle informazioni sul tuo dispositivo

    Cookie, identificatori di dispositivi o altre informazioni possono essere memorizzati o resi accessibili sul tuo dispositivo per le finalità sopra indicate.

  • Annunci e contenuti personalizzati, misurazione di annunci e contenuti, approfondimenti sul pubblico e sviluppo di prodotti

    Gli annunci e i contenuti possono essere personalizzati in base a un profilo. È possibile aggiungere più dati per personalizzare meglio annunci e contenuti. È possibile misurare il rendimento degli annunci e dei contenuti. È possibile ricavare informazioni sul pubblico che ha visto gli annunci e i contenuti. Tali dati possono essere utilizzati per sviluppare o migliorare l'esperienza, i sistemi e il software dell'utente.

Cliccando su “Accetto”, acconsenti all'uso di cookie, identificatori di dispositivo, web beacon o altre tecnologie simili. Puoi modificare le impostazioni nel browser del tuo dispositivo.

Per determinati scopi, è possibile fare affidamento su interessi legali, piuttosto che sul consenso. Puoi approfondire questo argomento consultando la nostra Informativa sulla privacy e sui cookie.